<?xml version="1.0"?>
<gpx xmlns="http://www.topografix.com/GPX/1/1" xmlns:xsi="http://www.w3.org/2001/XMLSchema-instance" version="1.1" creator="GPX RubyGem 1.0.0 -- http://dougfales.github.io/gpx/" xsi:schemaLocation="http://www.topografix.com/GPX/1/1 http://www.topografix.com/GPX/1/1/gpx.xsd">
  <metadata>
    <name/>
    <time>2026-05-09T06:45:54+00:00</time>
    <bound minlat="90.0" minlon="180.0" maxlat="-90.0" maxlon="-180.0"/>
  </metadata>
  <trk>
    <name/>
    <trkseg>
      <trkpt lat="44.167097" lon="4.575916">
        <time>1970-01-01T00:00:00+00:00</time>
        <ele>70.0</ele>
      </trkpt>
      <trkpt lat="44.167063" lon="4.575929">
        <time>1970-01-01T00:00:00+00:00</time>
        <ele>70.0</ele>
      </trkpt>
      <trkpt lat="44.167033" lon="4.575801">
        <time>1970-01-01T00:00:00+00:00</time>
        <ele>70.0</ele>
      </trkpt>
      <trkpt lat="44.166723" lon="4.575897">
        <time>1970-01-01T00:00:00+00:00</time>
        <ele>69.0</ele>
      </trkpt>
      <trkpt lat="44.166761" lon="4.576019">
        <time>1970-01-01T00:00:00+00:00</time>
        <ele>69.0</ele>
      </trkpt>
      <trkpt lat="44.166814" lon="4.576185">
        <time>1970-01-01T00:00:00+00:00</time>
        <ele>69.0</ele>
      </trkpt>
      <trkpt lat="44.166843" lon="4.576337">
        <time>1970-01-01T00:00:00+00:00</time>
        <ele>68.0</ele>
      </trkpt>
      <trkpt lat="44.166858" lon="4.576527">
        <time>1970-01-01T00:00:00+00:00</time>
        <ele>68.0</ele>
      </trkpt>
      <trkpt lat="44.166849" lon="4.576888">
        <time>1970-01-01T00:00:00+00:00</time>
        <ele>65.0</ele>
      </trkpt>
      <trkpt lat="44.166756" lon="4.576924">
        <time>1970-01-01T00:00:00+00:00</time>
        <ele>65.0</ele>
      </trkpt>
      <trkpt lat="44.166063" lon="4.576976">
        <time>1970-01-01T00:00:00+00:00</time>
        <ele>68.0</ele>
      </trkpt>
      <trkpt lat="44.164871" lon="4.577024">
        <time>1970-01-01T00:00:00+00:00</time>
        <ele>71.0</ele>
      </trkpt>
      <trkpt lat="44.164646" lon="4.577129">
        <time>1970-01-01T00:00:00+00:00</time>
        <ele>73.0</ele>
      </trkpt>
      <trkpt lat="44.164559" lon="4.577219">
        <time>1970-01-01T00:00:00+00:00</time>
        <ele>72.0</ele>
      </trkpt>
      <trkpt lat="44.164348" lon="4.577206">
        <time>1970-01-01T00:00:00+00:00</time>
        <ele>72.0</ele>
      </trkpt>
      <trkpt lat="44.163937" lon="4.577027">
        <time>1970-01-01T00:00:00+00:00</time>
        <ele>73.0</ele>
      </trkpt>
      <trkpt lat="44.16364" lon="4.576833">
        <time>1970-01-01T00:00:00+00:00</time>
        <ele>75.0</ele>
      </trkpt>
      <trkpt lat="44.16346" lon="4.576459">
        <time>1970-01-01T00:00:00+00:00</time>
        <ele>81.0</ele>
      </trkpt>
      <trkpt lat="44.16279" lon="4.576129">
        <time>1970-01-01T00:00:00+00:00</time>
        <ele>86.0</ele>
      </trkpt>
      <trkpt lat="44.162633" lon="4.575977">
        <time>1970-01-01T00:00:00+00:00</time>
        <ele>88.0</ele>
      </trkpt>
      <trkpt lat="44.162303" lon="4.575715">
        <time>1970-01-01T00:00:00+00:00</time>
        <ele>91.0</ele>
      </trkpt>
      <trkpt lat="44.162268" lon="4.575644">
        <time>1970-01-01T00:00:00+00:00</time>
        <ele>92.0</ele>
      </trkpt>
      <trkpt lat="44.161593" lon="4.575232">
        <time>1970-01-01T00:00:00+00:00</time>
        <ele>97.0</ele>
      </trkpt>
      <trkpt lat="44.161406" lon="4.575205">
        <time>1970-01-01T00:00:00+00:00</time>
        <ele>97.0</ele>
      </trkpt>
      <trkpt lat="44.161216" lon="4.575133">
        <time>1970-01-01T00:00:00+00:00</time>
        <ele>98.0</ele>
      </trkpt>
      <trkpt lat="44.161036" lon="4.575132">
        <time>1970-01-01T00:00:00+00:00</time>
        <ele>98.0</ele>
      </trkpt>
      <trkpt lat="44.160984" lon="4.575182">
        <time>1970-01-01T00:00:00+00:00</time>
        <ele>97.0</ele>
      </trkpt>
      <trkpt lat="44.160891" lon="4.575428">
        <time>1970-01-01T00:00:00+00:00</time>
        <ele>92.0</ele>
      </trkpt>
      <trkpt lat="44.16089" lon="4.575497">
        <time>1970-01-01T00:00:00+00:00</time>
        <ele>91.0</ele>
      </trkpt>
      <trkpt lat="44.160829" lon="4.575601">
        <time>1970-01-01T00:00:00+00:00</time>
        <ele>89.0</ele>
      </trkpt>
      <trkpt lat="44.160725" lon="4.575662">
        <time>1970-01-01T00:00:00+00:00</time>
        <ele>88.0</ele>
      </trkpt>
      <trkpt lat="44.160546" lon="4.575862">
        <time>1970-01-01T00:00:00+00:00</time>
        <ele>86.0</ele>
      </trkpt>
      <trkpt lat="44.160488" lon="4.575904">
        <time>1970-01-01T00:00:00+00:00</time>
        <ele>86.0</ele>
      </trkpt>
      <trkpt lat="44.160423" lon="4.575925">
        <time>1970-01-01T00:00:00+00:00</time>
        <ele>85.0</ele>
      </trkpt>
      <trkpt lat="44.160227" lon="4.575904">
        <time>1970-01-01T00:00:00+00:00</time>
        <ele>87.0</ele>
      </trkpt>
      <trkpt lat="44.160074" lon="4.575958">
        <time>1970-01-01T00:00:00+00:00</time>
        <ele>87.0</ele>
      </trkpt>
      <trkpt lat="44.159986" lon="4.575884">
        <time>1970-01-01T00:00:00+00:00</time>
        <ele>89.0</ele>
      </trkpt>
      <trkpt lat="44.159918" lon="4.575882">
        <time>1970-01-01T00:00:00+00:00</time>
        <ele>89.0</ele>
      </trkpt>
      <trkpt lat="44.159878" lon="4.575939">
        <time>1970-01-01T00:00:00+00:00</time>
        <ele>88.0</ele>
      </trkpt>
      <trkpt lat="44.1597" lon="4.576024">
        <time>1970-01-01T00:00:00+00:00</time>
        <ele>88.0</ele>
      </trkpt>
      <trkpt lat="44.159427" lon="4.576035">
        <time>1970-01-01T00:00:00+00:00</time>
        <ele>89.0</ele>
      </trkpt>
      <trkpt lat="44.159216" lon="4.576073">
        <time>1970-01-01T00:00:00+00:00</time>
        <ele>88.0</ele>
      </trkpt>
      <trkpt lat="44.159011" lon="4.576023">
        <time>1970-01-01T00:00:00+00:00</time>
        <ele>89.0</ele>
      </trkpt>
      <trkpt lat="44.158836" lon="4.576082">
        <time>1970-01-01T00:00:00+00:00</time>
        <ele>88.0</ele>
      </trkpt>
      <trkpt lat="44.158801" lon="4.576067">
        <time>1970-01-01T00:00:00+00:00</time>
        <ele>88.0</ele>
      </trkpt>
      <trkpt lat="44.158534" lon="4.576083">
        <time>1970-01-01T00:00:00+00:00</time>
        <ele>89.0</ele>
      </trkpt>
      <trkpt lat="44.158492" lon="4.57611">
        <time>1970-01-01T00:00:00+00:00</time>
        <ele>89.0</ele>
      </trkpt>
      <trkpt lat="44.15837" lon="4.576082">
        <time>1970-01-01T00:00:00+00:00</time>
        <ele>89.0</ele>
      </trkpt>
      <trkpt lat="44.15821" lon="4.57614">
        <time>1970-01-01T00:00:00+00:00</time>
        <ele>89.0</ele>
      </trkpt>
      <trkpt lat="44.15809" lon="4.576216">
        <time>1970-01-01T00:00:00+00:00</time>
        <ele>89.0</ele>
      </trkpt>
      <trkpt lat="44.158" lon="4.576302">
        <time>1970-01-01T00:00:00+00:00</time>
        <ele>87.0</ele>
      </trkpt>
      <trkpt lat="44.157873" lon="4.576328">
        <time>1970-01-01T00:00:00+00:00</time>
        <ele>88.0</ele>
      </trkpt>
      <trkpt lat="44.157759" lon="4.576302">
        <time>1970-01-01T00:00:00+00:00</time>
        <ele>89.0</ele>
      </trkpt>
      <trkpt lat="44.157688" lon="4.576324">
        <time>1970-01-01T00:00:00+00:00</time>
        <ele>89.0</ele>
      </trkpt>
      <trkpt lat="44.157574" lon="4.576401">
        <time>1970-01-01T00:00:00+00:00</time>
        <ele>89.0</ele>
      </trkpt>
      <trkpt lat="44.157326" lon="4.576495">
        <time>1970-01-01T00:00:00+00:00</time>
        <ele>89.0</ele>
      </trkpt>
      <trkpt lat="44.157251" lon="4.576567">
        <time>1970-01-01T00:00:00+00:00</time>
        <ele>91.0</ele>
      </trkpt>
      <trkpt lat="44.157153" lon="4.576813">
        <time>1970-01-01T00:00:00+00:00</time>
        <ele>90.0</ele>
      </trkpt>
      <trkpt lat="44.157017" lon="4.576895">
        <time>1970-01-01T00:00:00+00:00</time>
        <ele>90.0</ele>
      </trkpt>
      <trkpt lat="44.15689" lon="4.576898">
        <time>1970-01-01T00:00:00+00:00</time>
        <ele>91.0</ele>
      </trkpt>
      <trkpt lat="44.15682" lon="4.576868">
        <time>1970-01-01T00:00:00+00:00</time>
        <ele>92.0</ele>
      </trkpt>
      <trkpt lat="44.156714" lon="4.576923">
        <time>1970-01-01T00:00:00+00:00</time>
        <ele>92.0</ele>
      </trkpt>
      <trkpt lat="44.156555" lon="4.576927">
        <time>1970-01-01T00:00:00+00:00</time>
        <ele>93.0</ele>
      </trkpt>
      <trkpt lat="44.156513" lon="4.576918">
        <time>1970-01-01T00:00:00+00:00</time>
        <ele>93.0</ele>
      </trkpt>
      <trkpt lat="44.156262" lon="4.57675">
        <time>1970-01-01T00:00:00+00:00</time>
        <ele>93.0</ele>
      </trkpt>
      <trkpt lat="44.156193" lon="4.576738">
        <time>1970-01-01T00:00:00+00:00</time>
        <ele>93.0</ele>
      </trkpt>
      <trkpt lat="44.156215" lon="4.57656">
        <time>1970-01-01T00:00:00+00:00</time>
        <ele>94.0</ele>
      </trkpt>
      <trkpt lat="44.156161" lon="4.57646">
        <time>1970-01-01T00:00:00+00:00</time>
        <ele>94.0</ele>
      </trkpt>
      <trkpt lat="44.156127" lon="4.576443">
        <time>1970-01-01T00:00:00+00:00</time>
        <ele>95.0</ele>
      </trkpt>
      <trkpt lat="44.155856" lon="4.576379">
        <time>1970-01-01T00:00:00+00:00</time>
        <ele>95.0</ele>
      </trkpt>
      <trkpt lat="44.15539" lon="4.576234">
        <time>1970-01-01T00:00:00+00:00</time>
        <ele>94.0</ele>
      </trkpt>
      <trkpt lat="44.155195" lon="4.576136">
        <time>1970-01-01T00:00:00+00:00</time>
        <ele>94.0</ele>
      </trkpt>
      <trkpt lat="44.155167" lon="4.576101">
        <time>1970-01-01T00:00:00+00:00</time>
        <ele>94.0</ele>
      </trkpt>
      <trkpt lat="44.155108" lon="4.576526">
        <time>1970-01-01T00:00:00+00:00</time>
        <ele>92.0</ele>
      </trkpt>
      <trkpt lat="44.155151" lon="4.576909">
        <time>1970-01-01T00:00:00+00:00</time>
        <ele>91.0</ele>
      </trkpt>
      <trkpt lat="44.155138" lon="4.577217">
        <time>1970-01-01T00:00:00+00:00</time>
        <ele>90.0</ele>
      </trkpt>
      <trkpt lat="44.155185" lon="4.57742">
        <time>1970-01-01T00:00:00+00:00</time>
        <ele>89.0</ele>
      </trkpt>
      <trkpt lat="44.155294" lon="4.577564">
        <time>1970-01-01T00:00:00+00:00</time>
        <ele>88.0</ele>
      </trkpt>
      <trkpt lat="44.155255" lon="4.57767">
        <time>1970-01-01T00:00:00+00:00</time>
        <ele>87.0</ele>
      </trkpt>
      <trkpt lat="44.155054" lon="4.57774">
        <time>1970-01-01T00:00:00+00:00</time>
        <ele>88.0</ele>
      </trkpt>
      <trkpt lat="44.154713" lon="4.577745">
        <time>1970-01-01T00:00:00+00:00</time>
        <ele>88.0</ele>
      </trkpt>
      <trkpt lat="44.154109" lon="4.577722">
        <time>1970-01-01T00:00:00+00:00</time>
        <ele>86.0</ele>
      </trkpt>
      <trkpt lat="44.153905" lon="4.577647">
        <time>1970-01-01T00:00:00+00:00</time>
        <ele>86.0</ele>
      </trkpt>
      <trkpt lat="44.15353" lon="4.57761">
        <time>1970-01-01T00:00:00+00:00</time>
        <ele>87.0</ele>
      </trkpt>
      <trkpt lat="44.153376" lon="4.577644">
        <time>1970-01-01T00:00:00+00:00</time>
        <ele>87.0</ele>
      </trkpt>
      <trkpt lat="44.153404" lon="4.577721">
        <time>1970-01-01T00:00:00+00:00</time>
        <ele>86.0</ele>
      </trkpt>
      <trkpt lat="44.153392" lon="4.578194">
        <time>1970-01-01T00:00:00+00:00</time>
        <ele>84.0</ele>
      </trkpt>
      <trkpt lat="44.153024" lon="4.578068">
        <time>1970-01-01T00:00:00+00:00</time>
        <ele>84.0</ele>
      </trkpt>
      <trkpt lat="44.152443" lon="4.577998">
        <time>1970-01-01T00:00:00+00:00</time>
        <ele>87.0</ele>
      </trkpt>
      <trkpt lat="44.152454" lon="4.577961">
        <time>1970-01-01T00:00:00+00:00</time>
        <ele>87.0</ele>
      </trkpt>
      <trkpt lat="44.152658" lon="4.57795">
        <time>1970-01-01T00:00:00+00:00</time>
        <ele>87.0</ele>
      </trkpt>
      <trkpt lat="44.152674" lon="4.577869">
        <time>1970-01-01T00:00:00+00:00</time>
        <ele>87.0</ele>
      </trkpt>
      <trkpt lat="44.152647" lon="4.577725">
        <time>1970-01-01T00:00:00+00:00</time>
        <ele>88.0</ele>
      </trkpt>
      <trkpt lat="44.152512" lon="4.577537">
        <time>1970-01-01T00:00:00+00:00</time>
        <ele>90.0</ele>
      </trkpt>
      <trkpt lat="44.152193" lon="4.576974">
        <time>1970-01-01T00:00:00+00:00</time>
        <ele>93.0</ele>
      </trkpt>
      <trkpt lat="44.152036" lon="4.576443">
        <time>1970-01-01T00:00:00+00:00</time>
        <ele>94.0</ele>
      </trkpt>
      <trkpt lat="44.151923" lon="4.576341">
        <time>1970-01-01T00:00:00+00:00</time>
        <ele>95.0</ele>
      </trkpt>
      <trkpt lat="44.151797" lon="4.576285">
        <time>1970-01-01T00:00:00+00:00</time>
        <ele>96.0</ele>
      </trkpt>
      <trkpt lat="44.151585" lon="4.576121">
        <time>1970-01-01T00:00:00+00:00</time>
        <ele>97.0</ele>
      </trkpt>
      <trkpt lat="44.151336" lon="4.575844">
        <time>1970-01-01T00:00:00+00:00</time>
        <ele>98.0</ele>
      </trkpt>
      <trkpt lat="44.151056" lon="4.57544">
        <time>1970-01-01T00:00:00+00:00</time>
        <ele>100.0</ele>
      </trkpt>
      <trkpt lat="44.150875" lon="4.575181">
        <time>1970-01-01T00:00:00+00:00</time>
        <ele>101.0</ele>
      </trkpt>
      <trkpt lat="44.150591" lon="4.574879">
        <time>1970-01-01T00:00:00+00:00</time>
        <ele>104.0</ele>
      </trkpt>
      <trkpt lat="44.150506" lon="4.574811">
        <time>1970-01-01T00:00:00+00:00</time>
        <ele>105.0</ele>
      </trkpt>
      <trkpt lat="44.150338" lon="4.574785">
        <time>1970-01-01T00:00:00+00:00</time>
        <ele>105.0</ele>
      </trkpt>
      <trkpt lat="44.150069" lon="4.574708">
        <time>1970-01-01T00:00:00+00:00</time>
        <ele>105.0</ele>
      </trkpt>
      <trkpt lat="44.14989" lon="4.574564">
        <time>1970-01-01T00:00:00+00:00</time>
        <ele>108.0</ele>
      </trkpt>
      <trkpt lat="44.149751" lon="4.574379">
        <time>1970-01-01T00:00:00+00:00</time>
        <ele>111.0</ele>
      </trkpt>
      <trkpt lat="44.14949" lon="4.574214">
        <time>1970-01-01T00:00:00+00:00</time>
        <ele>113.0</ele>
      </trkpt>
      <trkpt lat="44.149247" lon="4.574165">
        <time>1970-01-01T00:00:00+00:00</time>
        <ele>113.0</ele>
      </trkpt>
      <trkpt lat="44.148724" lon="4.573949">
        <time>1970-01-01T00:00:00+00:00</time>
        <ele>113.0</ele>
      </trkpt>
      <trkpt lat="44.148323" lon="4.573811">
        <time>1970-01-01T00:00:00+00:00</time>
        <ele>115.0</ele>
      </trkpt>
      <trkpt lat="44.147676" lon="4.573823">
        <time>1970-01-01T00:00:00+00:00</time>
        <ele>115.0</ele>
      </trkpt>
      <trkpt lat="44.147597" lon="4.573848">
        <time>1970-01-01T00:00:00+00:00</time>
        <ele>115.0</ele>
      </trkpt>
      <trkpt lat="44.147468" lon="4.573934">
        <time>1970-01-01T00:00:00+00:00</time>
        <ele>113.0</ele>
      </trkpt>
      <trkpt lat="44.147252" lon="4.573943">
        <time>1970-01-01T00:00:00+00:00</time>
        <ele>111.0</ele>
      </trkpt>
      <trkpt lat="44.147072" lon="4.573886">
        <time>1970-01-01T00:00:00+00:00</time>
        <ele>111.0</ele>
      </trkpt>
      <trkpt lat="44.147072" lon="4.574188">
        <time>1970-01-01T00:00:00+00:00</time>
        <ele>111.0</ele>
      </trkpt>
      <trkpt lat="44.147059" lon="4.574422">
        <time>1970-01-01T00:00:00+00:00</time>
        <ele>110.0</ele>
      </trkpt>
      <trkpt lat="44.147059" lon="4.574422">
        <time>1970-01-01T00:00:00+00:00</time>
        <ele>110.0</ele>
      </trkpt>
      <trkpt lat="44.147072" lon="4.574188">
        <time>1970-01-01T00:00:00+00:00</time>
        <ele>111.0</ele>
      </trkpt>
      <trkpt lat="44.147072" lon="4.573886">
        <time>1970-01-01T00:00:00+00:00</time>
        <ele>111.0</ele>
      </trkpt>
      <trkpt lat="44.147252" lon="4.573943">
        <time>1970-01-01T00:00:00+00:00</time>
        <ele>111.0</ele>
      </trkpt>
      <trkpt lat="44.147468" lon="4.573934">
        <time>1970-01-01T00:00:00+00:00</time>
        <ele>113.0</ele>
      </trkpt>
      <trkpt lat="44.147597" lon="4.573848">
        <time>1970-01-01T00:00:00+00:00</time>
        <ele>115.0</ele>
      </trkpt>
      <trkpt lat="44.147676" lon="4.573823">
        <time>1970-01-01T00:00:00+00:00</time>
        <ele>115.0</ele>
      </trkpt>
      <trkpt lat="44.148323" lon="4.573811">
        <time>1970-01-01T00:00:00+00:00</time>
        <ele>115.0</ele>
      </trkpt>
      <trkpt lat="44.148724" lon="4.573949">
        <time>1970-01-01T00:00:00+00:00</time>
        <ele>113.0</ele>
      </trkpt>
      <trkpt lat="44.149247" lon="4.574165">
        <time>1970-01-01T00:00:00+00:00</time>
        <ele>113.0</ele>
      </trkpt>
      <trkpt lat="44.14949" lon="4.574214">
        <time>1970-01-01T00:00:00+00:00</time>
        <ele>113.0</ele>
      </trkpt>
      <trkpt lat="44.149751" lon="4.574379">
        <time>1970-01-01T00:00:00+00:00</time>
        <ele>111.0</ele>
      </trkpt>
      <trkpt lat="44.14989" lon="4.574564">
        <time>1970-01-01T00:00:00+00:00</time>
        <ele>108.0</ele>
      </trkpt>
      <trkpt lat="44.150069" lon="4.574708">
        <time>1970-01-01T00:00:00+00:00</time>
        <ele>105.0</ele>
      </trkpt>
      <trkpt lat="44.150338" lon="4.574785">
        <time>1970-01-01T00:00:00+00:00</time>
        <ele>105.0</ele>
      </trkpt>
      <trkpt lat="44.150506" lon="4.574811">
        <time>1970-01-01T00:00:00+00:00</time>
        <ele>105.0</ele>
      </trkpt>
      <trkpt lat="44.150591" lon="4.574879">
        <time>1970-01-01T00:00:00+00:00</time>
        <ele>104.0</ele>
      </trkpt>
      <trkpt lat="44.150875" lon="4.575181">
        <time>1970-01-01T00:00:00+00:00</time>
        <ele>101.0</ele>
      </trkpt>
      <trkpt lat="44.151056" lon="4.57544">
        <time>1970-01-01T00:00:00+00:00</time>
        <ele>100.0</ele>
      </trkpt>
      <trkpt lat="44.151336" lon="4.575844">
        <time>1970-01-01T00:00:00+00:00</time>
        <ele>98.0</ele>
      </trkpt>
      <trkpt lat="44.151585" lon="4.576121">
        <time>1970-01-01T00:00:00+00:00</time>
        <ele>97.0</ele>
      </trkpt>
      <trkpt lat="44.151797" lon="4.576285">
        <time>1970-01-01T00:00:00+00:00</time>
        <ele>96.0</ele>
      </trkpt>
      <trkpt lat="44.151923" lon="4.576341">
        <time>1970-01-01T00:00:00+00:00</time>
        <ele>95.0</ele>
      </trkpt>
      <trkpt lat="44.152036" lon="4.576443">
        <time>1970-01-01T00:00:00+00:00</time>
        <ele>94.0</ele>
      </trkpt>
      <trkpt lat="44.152193" lon="4.576974">
        <time>1970-01-01T00:00:00+00:00</time>
        <ele>93.0</ele>
      </trkpt>
      <trkpt lat="44.152512" lon="4.577537">
        <time>1970-01-01T00:00:00+00:00</time>
        <ele>90.0</ele>
      </trkpt>
      <trkpt lat="44.152647" lon="4.577725">
        <time>1970-01-01T00:00:00+00:00</time>
        <ele>88.0</ele>
      </trkpt>
      <trkpt lat="44.152674" lon="4.577869">
        <time>1970-01-01T00:00:00+00:00</time>
        <ele>87.0</ele>
      </trkpt>
      <trkpt lat="44.152658" lon="4.57795">
        <time>1970-01-01T00:00:00+00:00</time>
        <ele>87.0</ele>
      </trkpt>
      <trkpt lat="44.152454" lon="4.577961">
        <time>1970-01-01T00:00:00+00:00</time>
        <ele>87.0</ele>
      </trkpt>
      <trkpt lat="44.152443" lon="4.577998">
        <time>1970-01-01T00:00:00+00:00</time>
        <ele>87.0</ele>
      </trkpt>
      <trkpt lat="44.153024" lon="4.578068">
        <time>1970-01-01T00:00:00+00:00</time>
        <ele>84.0</ele>
      </trkpt>
      <trkpt lat="44.153392" lon="4.578194">
        <time>1970-01-01T00:00:00+00:00</time>
        <ele>84.0</ele>
      </trkpt>
      <trkpt lat="44.153534" lon="4.578247">
        <time>1970-01-01T00:00:00+00:00</time>
        <ele>84.0</ele>
      </trkpt>
      <trkpt lat="44.153557" lon="4.578299">
        <time>1970-01-01T00:00:00+00:00</time>
        <ele>84.0</ele>
      </trkpt>
      <trkpt lat="44.153535" lon="4.578964">
        <time>1970-01-01T00:00:00+00:00</time>
        <ele>87.0</ele>
      </trkpt>
      <trkpt lat="44.153556" lon="4.579372">
        <time>1970-01-01T00:00:00+00:00</time>
        <ele>90.0</ele>
      </trkpt>
      <trkpt lat="44.153579" lon="4.579468">
        <time>1970-01-01T00:00:00+00:00</time>
        <ele>92.0</ele>
      </trkpt>
      <trkpt lat="44.153589" lon="4.579488">
        <time>1970-01-01T00:00:00+00:00</time>
        <ele>92.0</ele>
      </trkpt>
      <trkpt lat="44.154125" lon="4.579718">
        <time>1970-01-01T00:00:00+00:00</time>
        <ele>93.0</ele>
      </trkpt>
      <trkpt lat="44.154214" lon="4.579789">
        <time>1970-01-01T00:00:00+00:00</time>
        <ele>94.0</ele>
      </trkpt>
      <trkpt lat="44.154331" lon="4.579921">
        <time>1970-01-01T00:00:00+00:00</time>
        <ele>95.0</ele>
      </trkpt>
      <trkpt lat="44.15443" lon="4.580105">
        <time>1970-01-01T00:00:00+00:00</time>
        <ele>96.0</ele>
      </trkpt>
      <trkpt lat="44.154649" lon="4.580162">
        <time>1970-01-01T00:00:00+00:00</time>
        <ele>95.0</ele>
      </trkpt>
      <trkpt lat="44.154834" lon="4.58015">
        <time>1970-01-01T00:00:00+00:00</time>
        <ele>95.0</ele>
      </trkpt>
      <trkpt lat="44.154996" lon="4.580214">
        <time>1970-01-01T00:00:00+00:00</time>
        <ele>94.0</ele>
      </trkpt>
      <trkpt lat="44.155516" lon="4.580673">
        <time>1970-01-01T00:00:00+00:00</time>
        <ele>93.0</ele>
      </trkpt>
      <trkpt lat="44.155632" lon="4.580869">
        <time>1970-01-01T00:00:00+00:00</time>
        <ele>94.0</ele>
      </trkpt>
      <trkpt lat="44.155843" lon="4.581274">
        <time>1970-01-01T00:00:00+00:00</time>
        <ele>95.0</ele>
      </trkpt>
      <trkpt lat="44.156012" lon="4.581554">
        <time>1970-01-01T00:00:00+00:00</time>
        <ele>97.0</ele>
      </trkpt>
      <trkpt lat="44.156018" lon="4.581632">
        <time>1970-01-01T00:00:00+00:00</time>
        <ele>98.0</ele>
      </trkpt>
      <trkpt lat="44.156019" lon="4.581631">
        <time>1970-01-01T00:00:00+00:00</time>
        <ele>98.0</ele>
      </trkpt>
      <trkpt lat="44.156175" lon="4.581575">
        <time>1970-01-01T00:00:00+00:00</time>
        <ele>98.0</ele>
      </trkpt>
      <trkpt lat="44.156593" lon="4.581631">
        <time>1970-01-01T00:00:00+00:00</time>
        <ele>98.0</ele>
      </trkpt>
      <trkpt lat="44.157088" lon="4.581599">
        <time>1970-01-01T00:00:00+00:00</time>
        <ele>97.0</ele>
      </trkpt>
      <trkpt lat="44.157324" lon="4.581629">
        <time>1970-01-01T00:00:00+00:00</time>
        <ele>96.0</ele>
      </trkpt>
      <trkpt lat="44.157407" lon="4.581659">
        <time>1970-01-01T00:00:00+00:00</time>
        <ele>96.0</ele>
      </trkpt>
      <trkpt lat="44.157517" lon="4.581808">
        <time>1970-01-01T00:00:00+00:00</time>
        <ele>96.0</ele>
      </trkpt>
      <trkpt lat="44.157686" lon="4.581986">
        <time>1970-01-01T00:00:00+00:00</time>
        <ele>97.0</ele>
      </trkpt>
      <trkpt lat="44.157909" lon="4.581749">
        <time>1970-01-01T00:00:00+00:00</time>
        <ele>92.0</ele>
      </trkpt>
      <trkpt lat="44.158276" lon="4.581535">
        <time>1970-01-01T00:00:00+00:00</time>
        <ele>86.0</ele>
      </trkpt>
      <trkpt lat="44.158364" lon="4.581463">
        <time>1970-01-01T00:00:00+00:00</time>
        <ele>83.0</ele>
      </trkpt>
      <trkpt lat="44.160471" lon="4.58193">
        <time>1970-01-01T00:00:00+00:00</time>
        <ele>74.0</ele>
      </trkpt>
      <trkpt lat="44.161556" lon="4.582126">
        <time>1970-01-01T00:00:00+00:00</time>
        <ele>73.0</ele>
      </trkpt>
      <trkpt lat="44.161859" lon="4.582175">
        <time>1970-01-01T00:00:00+00:00</time>
        <ele>73.0</ele>
      </trkpt>
      <trkpt lat="44.162037" lon="4.582177">
        <time>1970-01-01T00:00:00+00:00</time>
        <ele>73.0</ele>
      </trkpt>
      <trkpt lat="44.162159" lon="4.582157">
        <time>1970-01-01T00:00:00+00:00</time>
        <ele>72.0</ele>
      </trkpt>
      <trkpt lat="44.162249" lon="4.582186">
        <time>1970-01-01T00:00:00+00:00</time>
        <ele>72.0</ele>
      </trkpt>
      <trkpt lat="44.162742" lon="4.581864">
        <time>1970-01-01T00:00:00+00:00</time>
        <ele>69.0</ele>
      </trkpt>
      <trkpt lat="44.163312" lon="4.581887">
        <time>1970-01-01T00:00:00+00:00</time>
        <ele>68.0</ele>
      </trkpt>
      <trkpt lat="44.163729" lon="4.581967">
        <time>1970-01-01T00:00:00+00:00</time>
        <ele>67.0</ele>
      </trkpt>
      <trkpt lat="44.164299" lon="4.582041">
        <time>1970-01-01T00:00:00+00:00</time>
        <ele>66.0</ele>
      </trkpt>
      <trkpt lat="44.164607" lon="4.582092">
        <time>1970-01-01T00:00:00+00:00</time>
        <ele>66.0</ele>
      </trkpt>
      <trkpt lat="44.165011" lon="4.582216">
        <time>1970-01-01T00:00:00+00:00</time>
        <ele>65.0</ele>
      </trkpt>
      <trkpt lat="44.167087" lon="4.582977">
        <time>1970-01-01T00:00:00+00:00</time>
        <ele>62.0</ele>
      </trkpt>
      <trkpt lat="44.167138" lon="4.582723">
        <time>1970-01-01T00:00:00+00:00</time>
        <ele>61.0</ele>
      </trkpt>
      <trkpt lat="44.167126" lon="4.582619">
        <time>1970-01-01T00:00:00+00:00</time>
        <ele>61.0</ele>
      </trkpt>
      <trkpt lat="44.166913" lon="4.581384">
        <time>1970-01-01T00:00:00+00:00</time>
        <ele>56.0</ele>
      </trkpt>
      <trkpt lat="44.166617" lon="4.579981">
        <time>1970-01-01T00:00:00+00:00</time>
        <ele>58.0</ele>
      </trkpt>
      <trkpt lat="44.166607" lon="4.579805">
        <time>1970-01-01T00:00:00+00:00</time>
        <ele>58.0</ele>
      </trkpt>
      <trkpt lat="44.166607" lon="4.579454">
        <time>1970-01-01T00:00:00+00:00</time>
        <ele>58.0</ele>
      </trkpt>
      <trkpt lat="44.166849" lon="4.576888">
        <time>1970-01-01T00:00:00+00:00</time>
        <ele>65.0</ele>
      </trkpt>
      <trkpt lat="44.166858" lon="4.576527">
        <time>1970-01-01T00:00:00+00:00</time>
        <ele>68.0</ele>
      </trkpt>
      <trkpt lat="44.166843" lon="4.576337">
        <time>1970-01-01T00:00:00+00:00</time>
        <ele>68.0</ele>
      </trkpt>
      <trkpt lat="44.166814" lon="4.576185">
        <time>1970-01-01T00:00:00+00:00</time>
        <ele>69.0</ele>
      </trkpt>
      <trkpt lat="44.166761" lon="4.576019">
        <time>1970-01-01T00:00:00+00:00</time>
        <ele>69.0</ele>
      </trkpt>
      <trkpt lat="44.166723" lon="4.575897">
        <time>1970-01-01T00:00:00+00:00</time>
        <ele>69.0</ele>
      </trkpt>
      <trkpt lat="44.167033" lon="4.575801">
        <time>1970-01-01T00:00:00+00:00</time>
        <ele>70.0</ele>
      </trkpt>
      <trkpt lat="44.167063" lon="4.575929">
        <time>1970-01-01T00:00:00+00:00</time>
        <ele>70.0</ele>
      </trkpt>
      <trkpt lat="44.167097" lon="4.575916">
        <time>1970-01-01T00:00:00+00:00</time>
        <ele>70.0</ele>
      </trkpt>
    </trkseg>
  </trk>
</gpx>
